GFSFLT2_con_lsi_072.txt.gz
Lid_Strength_Index
6 6 6 6 6 6 6 6 5 5 4 5 5 4 4 4 3 2 2 2 2 1 1 1 1 1 1 1 1 1 1 1
8 7 6 5 5 5 5 5 5 5 4 4 5 4 4 4 3 2 1 1 1 1 1 1 1 1 1 1 1 1 1 1
8 8 7 5 5 5 5 5 5 5 5 4 4 4 4 3 3 2 2 1 1 1 1 1 1 1 1 1 1 1 1 1
8 7 7 6 6 6 5 5 5 5 5 6 5 5 4 4 3 2 1 1 1 1 1 1 1 1 3 4 2 1 1 1
7 7 7 7 6 6 6 5 4 5 5 5 4 4 4 3 3 3 3 3 2 2 2 1 1 1 4 5 4 1 1 1
7 7 7 6 6 7 6 6 6 5 6 5 4 4 4 4 4 4 3 3 3 3 3 2 2 1 4 5 5 1 1 1
7 6 5 5 5 5 6 6 5 6 6 6 5 5 4 4 4 4 4 4 4 4 3 2 2 2 5 6 5 1 1 1
6 5 5 5 5 5 6 6 6 6 5 5 5 5 5 4 4 4 4 4 4 3 3 3 3 2 5 6 5 1 2 2
8 7 7 6 5 5 6 6 7 6 5 5 5 5 5 5 4 4 4 4 4 4 3 3 3 2 2 6 6 2 2 2
9 9 9 9 8 7 7 7 6 5 5 5 5 5 5 4 4 4 4 4 4 4 4 4 3 2 5 5 7 7 4 2
9 9 9 9 8 8 9 7 6 6 6 6 5 5 4 4 4 4 4 4 4 4 4 4 3 1 1 6 7 7 8 6
10 10 11 11 10 9 9 8 8 8 7 7 6 5 5 4 4 4 4 4 4 3 3 3 3 2 2 1 1 3 7 5
10 10 11 12 11 11 10 9 9 9 9 8 8 6 6 5 4 4 4 3 3 3 3 3 3 3 2 2 2 2 1 2
9 9 9 9 9 10 10 10 9 9 10 9 8 7 6 5 4 4 7 6 6 7 6 3 2 5 6 8 9 10 10 10
10 9 8 10 11 9 10 10 10 9 9 9 8 8 7 5 5 5 5 5 8 8 8 9 9 7 9 9 10 11 10 10
10 9 8 9 10 11 10 9 9 9 9 9 7 6 5 4 4 3 3 4 4 4 7 7 9 9 10 10 10 9 3 7
11 10 10 9 9 9 8 8 9 9 8 7 6 5 4 4 3 3 4 4 4 4 4 8 8 10 10 11 10 3 3 3
13 12 12 11 9 9 8 7 7 7 7 8 7 5 5 4 4 4 4 4 4 4 3 3 4 7 6 5 5 2 2 3
13 12 13 12 10 8 9 8 8 7 5 5 7 4 4 4 4 5 5 4 3 3 3 4 9 3 3 3 3 2 2 3
14 14 14 13 12 11 9 8 7 6 6 5 4 4 4 4 3 4 3 3 3 3 3 4 13 6 4 4 2 2 3 3

GFSFLT2_con_lsi_075.txt.gz
Lid_Strength_Index
4 4 4 4 3 2 2 2 2 2 2 1 1 1 1 1 1 0 0 0 0 -0 -0 0 0 0 0 0 0 0 0 0
5 5 5 4 3 2 2 2 2 1 1 1 1 1 1 1 0 0 0 -0 0 0 0 0 0 0 0 0 0 0 0 0
5 5 4 4 4 3 4 4 3 2 2 2 1 1 0 0 0 0 0 0 0 0 0 0 -0 0 0 0 0 0 0 0
5 5 4 4 4 4 4 5 5 4 3 2 2 1 1 1 1 1 0 1 0 0 0 0 1 0 3 2 1 -0 0 0
5 5 4 4 4 4 4 4 4 5 5 4 4 2 2 1 1 1 1 1 1 1 1 0 0 -0 3 4 3 -1 -0 -0
5 4 4 3 3 3 3 3 4 4 4 4 4 4 3 1 1 1 1 1 1 1 1 0 0 0 4 5 5 -1 -0 -0
4 4 3 3 3 3 3 4 4 4 4 4 4 4 4 3 2 1 1 1 1 1 1 0 1 0 5 6 4 0 1 0
7 6 5 4 4 3 3 3 3 4 4 4 3 3 3 3 2 2 1 1 1 1 1 0 1 0 5 7 4 1 1 1
7 8 9 7 6 6 6 4 4 3 3 3 3 3 3 2 1 1 1 1 1 1 1 0 0 1 0 7 7 1 1 1
9 10 10 9 7 7 8 8 5 4 3 3 3 2 3 3 1 2 2 2 2 1 1 1 1 0 5 6 7 7 4 1
8 9 9 9 9 8 9 8 7 7 5 4 3 3 3 3 2 2 3 2 3 3 3 2 2 1 1 7 8 8 8 4
10 10 11 11 10 9 9 8 8 8 8 6 4 4 3 3 3 3 3 3 3 3 3 3 3 2 1 1 1 1 6 4
11 10 11 11 10 10 10 10 9 9 8 8 6 5 5 4 3 2 2 1 2 2 2 2 2 2 2 3 2 1 1 2
12 10 9 9 9 10 10 9 9 9 9 9 8 8 7 6 4 3 6 6 6 6 6 3 1 5 6 6 6 7 8 8
12 11 10 8 9 10 9 9 9 9 9 9 8 8 8 7 5 4 4 5 8 7 7 7 7 5 7 8 8 9 10 9
12 11 10 9 9 9 9 9 10 9 9 9 8 8 8 7 6 5 4 3 4 3 7 7 9 8 9 9 9 8 2 7
13 12 11 11 9 9 8 9 9 9 9 8 7 7 7 6 4 4 4 3 3 2 2 6 6 8 9 10 10 4 2 2
14 14 13 13 11 8 7 8 9 9 8 9 7 5 4 4 3 3 3 3 3 3 3 2 2 5 5 5 5 3 2 2
14 14 14 13 12 10 7 5 7 7 6 6 7 4 4 4 3 3 3 3 3 3 3 3 8 3 2 2 2 2 2 2
15 15 15 14 13 10 9 7 5 4 4 4 4 4 4 4 4 3 3 4 4 3 2 3 11 4 2 2 2 1 1 1

GFSFLT2_con_lsi_078.txt.gz
Lid_Strength_Index
3 3 3 3 2 1 1 1 1 1 1 1 1 1 1 1 0 -0 -0 -0 -0 -0 -0 -0 -0 -0 -0 -0 -0 -0 -0 -0
4 3 3 3 2 2 1 1 1 1 1 1 1 1 1 1 0 0 -0 -0 -0 -0 -0 -0 -0 -0 -0 -0 -0 -0 -0 -0
3 3 3 2 2 2 1 1 1 2 3 1 1 1 1 0 0 0 -0 -0 -0 -0 -0 -0 -0 -0 0 -0 -0 -0 -0 -0
3 3 2 3 2 2 2 1 2 2 4 3 2 1 1 0 0 0 0 0 -0 -0 0 0 -0 0 4 3 1 -0 -0 -0
4 3 3 2 2 2 2 1 1 2 3 4 2 2 1 1 1 0 1 0 0 0 -0 -0 0 -0 5 5 4 -0 -0 -0
6 5 4 3 2 2 1 1 1 2 2 4 4 3 2 1 1 1 1 1 1 1 1 0 0 0 5 5 4 -1 -0 -0
8 6 7 3 3 2 2 2 1 2 2 3 3 4 4 3 1 1 1 1 1 1 1 1 1 0 6 6 3 -1 -0 -0
8 9 7 7 6 4 4 3 2 2 2 2 2 2 2 3 2 1 1 1 1 1 1 0 2 0 7 7 4 0 0 0
8 8 8 7 6 6 7 5 4 3 2 2 1 1 1 1 1 1 1 1 1 1 1 0 0 0 0 7 7 0 0 1
10 9 9 8 7 7 7 9 8 4 3 3 2 1 1 2 1 1 1 1 2 2 1 1 1 -0 4 7 8 7 3 0
11 10 10 10 9 9 10 8 8 8 6 5 3 2 1 1 1 1 2 2 2 2 2 2 2 1 0 7 8 8 7 2
12 12 11 11 11 11 11 9 8 8 8 6 5 4 3 2 1 1 2 2 2 2 2 2 2 1 1 0 0 1 6 4
12 12 12 10 9 9 9 9 9 10 8 7 6 6 4 3 2 1 2 1 2 2 2 1 2 2 1 3 2 1 0 2
13 12 11 9 8 8 9 9 9 10 9 8 8 7 6 5 4 2 6 6 7 7 7 3 1 6 7 7 6 7 7 9
13 12 11 10 9 9 9 8 8 9 10 8 7 7 7 7 6 5 3 4 7 7 6 7 7 6 8 8 9 10 10 8
12 12 10 10 9 9 9 8 8 8 8 9 8 8 8 7 6 5 3 3 3 2 7 6 8 9 9 9 9 8 2 5
14 13 13 12 9 9 8 8 9 9 9 8 8 7 7 7 6 6 4 3 3 2 2 6 6 9 9 9 9 1 2 2
15 15 14 13 11 8 6 7 8 8 8 9 8 6 6 6 6 7 6 4 3 3 3 3 1 3 3 3 3 1 1 1
15 14 14 14 14 8 5 5 6 5 5 5 7 4 5 5 5 4 4 4 4 3 3 2 6 2 2 2 2 1 1 1
15 15 15 15 14 11 7 4 4 4 4 4 5 5 4 5 4 3 3 3 3 3 2 3 10 1 1 1 1 1 1 0

GFSFLT2_con_lsi_084.txt.gz
Lid_Strength_Index
4 4 4 4 3 2 2 2 2 1 1 1 1 2 2 2 2 1 1 1 1 3 2 3 4 3 2 1 1 1 2 2
6 5 5 5 4 4 3 3 2 1 1 2 2 2 2 2 1 1 1 1 1 4 3 2 2 3 2 1 1 2 2 1
7 7 7 6 6 5 4 3 2 1 2 2 2 1 1 1 2 2 1 3 3 1 2 2 1 2 1 2 2 2 2 2
8 7 7 7 7 7 7 6 5 3 2 2 2 1 1 2 2 2 4 3 4 2 2 2 3 1 6 6 2 2 2 2
9 8 8 8 8 7 7 7 7 6 4 2 2 2 2 2 2 2 2 3 2 2 2 2 2 1 7 7 4 1 2 2
10 10 10 9 9 9 8 7 5 6 6 4 3 3 3 2 2 2 2 2 2 2 2 2 2 2 7 7 5 1 1 1
11 11 11 10 10 9 8 8 6 7 5 6 4 3 3 2 2 2 2 3 3 2 2 2 2 3 8 7 3 1 2 2
12 12 12 11 11 10 9 9 8 7 6 5 5 3 3 3 2 2 2 2 3 2 2 2 3 2 8 7 3 1 2 2
12 12 12 12 11 11 11 10 9 8 7 5 5 5 3 2 2 2 2 2 2 2 2 1 2 2 5 8 7 2 2 2
13 13 12 11 10 11 11 11 10 9 8 8 6 5 4 2 3 2 2 2 3 3 3 3 2 2 6 9 8 5 4 2
13 13 11 10 10 10 11 10 10 9 10 9 9 6 5 3 3 3 3 3 3 4 3 3 2 2 4 8 8 8 8 2
13 13 13 11 10 10 9 9 8 9 10 10 9 8 6 5 4 3 2 3 3 3 3 3 3 3 3 5 6 6 7 5
13 14 14 12 10 10 9 9 8 8 9 10 10 8 7 6 5 3 2 2 2 3 3 3 3 3 3 5 5 3 2 3
14 14 14 12 10 9 8 7 8 8 9 10 10 8 8 7 6 4 6 6 7 7 6 3 2 4 5 7 8 6 6 7
15 15 13 14 11 9 8 7 8 8 8 9 9 8 7 7 6 5 4 5 8 9 8 9 8 5 7 7 9 8 8 8
14 14 14 14 13 11 9 7 7 8 8 9 8 8 7 7 7 5 4 3 4 3 8 7 8 8 8 8 10 8 6 6
14 15 15 15 14 13 10 6 7 7 7 8 8 7 7 7 6 5 5 3 3 4 2 7 9 10 10 11 11 2 3 3
15 16 15 15 15 14 11 7 5 5 6 9 7 7 7 7 6 6 5 5 5 4 4 3 6 6 4 4 4 3 2 2
13 14 15 15 15 14 11 9 7 4 5 5 7 5 5 6 6 6 6 6 6 6 5 5 11 3 4 3 3 3 3 2
14 14 14 15 15 14 12 11 10 5 4 5 5 4 5 5 6 6 6 6 6 6 6 5 10 3 2 2 2 2 2 1

GFSFLT2_con_lsi_087.txt.gz
Lid_Strength_Index
8 8 8 8 8 7 7 7 6 6 6 6 6 5 3 2 2 2 1 1 1 1 1 3 4 2 4 2 2 3 3 4
9 9 9 8 8 8 8 7 6 7 6 6 6 6 5 3 2 2 2 1 1 1 3 4 4 4 3 2 2 3 3 4
10 10 10 10 10 9 9 8 8 7 7 7 7 6 5 4 2 2 2 2 2 1 3 3 4 4 3 3 2 2 3 2
11 10 10 10 10 10 9 9 9 8 8 8 7 7 6 5 3 2 2 2 2 1 3 2 4 2 5 5 2 2 2 2
11 11 11 11 10 10 9 9 8 8 8 8 7 6 6 6 3 2 2 3 2 2 3 2 3 2 7 7 5 2 2 2
11 11 11 11 11 10 10 9 9 9 9 8 7 6 6 6 4 4 2 3 2 2 3 2 2 2 7 6 6 2 2 2
12 11 12 12 11 10 10 10 10 10 9 8 7 7 6 6 5 5 3 3 2 2 2 2 2 2 5 7 5 2 2 2
12 12 12 13 12 11 10 11 11 11 10 9 8 7 6 6 5 4 3 2 2 2 2 2 2 2 8 8 5 2 3 2
12 13 13 13 12 11 10 10 11 10 9 9 9 8 7 6 6 5 5 3 2 2 3 3 3 4 7 8 6 2 3 3
13 13 13 12 12 11 10 10 9 9 8 9 9 9 8 7 7 6 5 3 4 3 3 4 3 4 8 11 7 6 4 3
13 13 13 13 12 12 11 9 9 8 8 9 8 9 9 8 7 7 5 4 4 4 3 4 4 2 5 9 9 8 7 4
13 14 14 14 13 11 10 9 8 8 9 8 9 9 9 9 7 6 5 5 3 4 4 4 4 3 4 5 8 8 8 6
14 14 14 14 13 12 10 8 7 8 8 8 9 9 9 9 7 7 6 3 4 3 3 3 4 4 3 5 5 6 6 5
14 15 14 14 13 13 10 9 7 7 8 9 9 9 9 9 8 8 7 7 7 8 8 5 3 4 7 7 6 6 8 8
14 14 14 14 14 13 12 10 8 7 8 8 9 8 8 8 9 8 8 5 7 8 8 7 6 5 7 7 8 7 9 9
13 13 14 14 14 13 13 11 8 7 7 8 8 8 8 7 7 7 7 5 6 6 6 8 7 7 7 8 8 7 4 7
13 13 15 15 15 14 13 11 9 6 6 6 6 7 7 7 7 7 6 5 4 5 5 7 9 9 9 9 9 2 3 4
14 15 14 15 15 14 13 11 11 8 5 8 7 6 7 7 6 7 7 7 5 5 5 4 5 6 5 7 7 4 3 3
13 14 14 14 14 13 13 12 12 9 5 5 7 6 6 7 7 7 7 7 7 7 5 5 10 6 5 4 5 4 5 4
13 14 14 14 14 14 14 13 12 10 7 5 5 5 5 6 7 6 8 7 7 7 6 5 11 5 4 3 4 3 4 4